Weather History for Cleveland Burke, OH

Change the Weather History Date:

Saturday, October 13, 2012

  Actual Average Record
Temperature  
Mean Temperature 50 °F -  
Max Temperature 64 °F 61 °F 84 °F (1997)
Min Temperature 37 °F 47 °F 35 °F (2006)
Degree Days  
Heating Degree Days 14    
Moisture  
Dew Point 35 °F    
Average Humidity 60    
Maximum Humidity 73    
Minimum Humidity 43    
Precipitation  
Precipitation 0.01 in - - ()
Sea Level Pressure  
Sea Level Pressure 30.23 in    
Wind  
Wind Speed 10 mph (SSE)    
Max Wind Speed 20 mph    
Max Gust Speed 31 mph    
Visibility 10 miles    
Events Rain    
Averages and records for this station are not official NWS values.
T = Trace of Precipitation, MM = Missing Value Source: NWS Daily Summary

Daily Weather History Graph

Daily Weather History Graph

Search for Another Location

Airport:

Trip Planner

Search our weather history database for the weather conditions in past years. The results will help you decide how hot, cold, wet, or windy it might be!

Date:

Astronomy

Oct. 13, 2012 Rise Set
Actual Time 7:37 AM EDT 6:47 PM EDT
Civil Twilight 7:09 AM EDT 7:15 PM EDT
Nautical Twilight 6:37 AM EDT 7:47 PM EDT
Astronomical Twilight 6:04 AM EDT 8:19 PM EDT
Moon 5:24 AM EDT (10/13) 5:31 PM EDT (10/13)
Length of Visible Light 12h 06m
Length of Day
11h 10m
Waning Crescent, 5% of the Moon is Illuminated
Oct 13
Waning Crescent
Oct 15
New
Oct 21
First Quarter
Oct 29
Full
Nov 6
Last Quarter

Hourly Weather History & Observations

Time (EDT) Temp. Windchill Dew Point Humidity Pressure Visibility Wind Dir Wind Speed Gust Speed Precip Events Conditions
12:53 AM 39.9 °F 36.7 °F 30.0 °F 68% 30.41 in 10.0 mi SSE 4.6 mph - N/A   Clear
1:53 AM 39.0 °F 34.8 °F 30.0 °F 70% 30.42 in 10.0 mi SSE 5.8 mph - N/A   Clear
2:53 AM 37.9 °F 32.7 °F 30.0 °F 73% 30.38 in 9.0 mi SE 6.9 mph - N/A   Clear
3:53 AM 39.0 °F 32.8 °F 28.0 °F 65% 30.37 in 10.0 mi SSE 9.2 mph - N/A   Clear
4:53 AM 37.9 °F 30.5 °F 28.0 °F 68% 30.37 in 10.0 mi SSE 11.5 mph - N/A   Clear
5:53 AM 37.9 °F 29.6 °F 27.0 °F 65% 30.38 in 10.0 mi SSE 13.8 mph - N/A   Clear
6:53 AM 37.9 °F 30.0 °F 27.0 °F 65% 30.35 in 10.0 mi SSE 12.7 mph - N/A   Clear
7:53 AM 37.0 °F 28.9 °F 27.0 °F 67% 30.35 in 10.0 mi SSE 12.7 mph - N/A   Mostly Cloudy
8:53 AM 39.9 °F 32.5 °F 28.0 °F 63% 30.32 in 10.0 mi SSE 12.7 mph - N/A   Mostly Cloudy
9:53 AM 43.0 °F 36.0 °F 28.9 °F 58% 30.33 in 10.0 mi SSE 13.8 mph - N/A   Clear
10:53 AM 46.0 °F 40.2 °F 30.0 °F 54% 30.31 in 10.0 mi SSE 12.7 mph - N/A   Partly Cloudy
11:53 AM 52.0 °F - 33.1 °F 49% 30.27 in 10.0 mi SSE 11.5 mph - N/A   Clear
12:53 PM 57.0 °F - 35.1 °F 44% 30.24 in 10.0 mi South 12.7 mph 18.4 mph N/A   Clear
1:53 PM 60.1 °F - 37.9 °F 44% 30.20 in 10.0 mi SSE 10.4 mph 18.4 mph N/A   Clear
2:53 PM 62.1 °F - 39.0 °F 43% 30.14 in 10.0 mi SSE 10.4 mph 20.7 mph N/A   Clear
4:53 PM 63.0 °F - 42.1 °F 46% 30.06 in 10.0 mi SSE 13.8 mph 23.0 mph N/A   Overcast
5:53 PM 63.0 °F - 43.0 °F 48% 30.01 in 10.0 mi South 15.0 mph 23.0 mph N/A   Partly Cloudy
6:53 PM 62.1 °F - 46.9 °F 58% 30.01 in 10.0 mi South 13.8 mph - 0.00 in Rain Light Rain
8:53 PM 59.0 °F - 50.0 °F 72% 29.98 in 10.0 mi SSE 13.8 mph 23.0 mph 0.01 in   Overcast
10:53 PM 64.0 °F - 51.1 °F 63% 29.96 in 10.0 mi South 16.1 mph 26.5 mph N/A   Overcast
11:53 PM 63.0 °F - 53.1 °F 70% 29.96 in 10.0 mi South 19.6 mph 31.1 mph N/A   Overcast